Find Starlink 37232

NORAD ID: 69515 Int'l Des: 2026-133 Owner: SPXS Country: US Constellation: starlink operational
LEOCIRCULAR

現在のビュー

3D地球を読み込み中...

About Starlink 37232

Starlink 37232 (NORAD 69515) is a starlink constellation satellite (v2 mini) launched Jun 11, 2026 by SPXS of US. It operates in LEO, CIRCULAR orbit with a mass of 575.00 kg.

次回通過

Passes for default location (London). Set your location on the main map for personalized predictions.

高度履歴

Loading altitude history...

軌道要素

1 69515U 26133H 26237.32212186 .00021008 00000-0 63092-3 0 9990
2 69515 53.1608 352.2048 0003680 311.6497 48.4190 15.34408724 11470
Epoch: Aug 25, 2026 • Age: 4 hours

現在のステータス

高度 476.2 km
遠地点 / 近地点 N/A
速度 7.63 km/s
衛星直下点 -42.37°S, 62.14°E
打ち上げ日 Jun 11, 2026
運用期間 0.2 years
タイプ internet

技術仕様

分類 Payload
質量 575.00 kg
乾燥質量 530.00 kg
総質量 575.00 kg
長さ 0.30 m
直径 4.10 m
スパン 29.00 m
形状 Box + pan
製造者 SPXS
バスタイプ Starlink V2MO
フェーズステータス In Orbit
所有者/国 SPXS/US

Most Searched